{"data":{"norad_id":48474,"intl_designator":"2021-040AY","name":"STARLINK-2697","alt_names":[],"object_type":"PAYLOAD","status":"ACTIVE","operator":null,"country":"US","launch_date":"2021-05-09","launch_site_code":"AFETR","launch_vehicle":null,"mission":null,"orbit_class":"UNKNOWN","rcs_meters":null,"size_class":null,"mass_kg":null,"dimensions":null,"purposes":["comms"],"wikipedia_slug":null,"has_3d_model":false,"image_url":null,"decayed_at":null,"tle_current":{"epoch":"2026-05-24T21:01:24.310848Z","epoch_age_seconds":81873,"freshness":"FRESH","line1":"1 48474U 21040AY  26144.87597582  .00000529  00000+0  29991-4 0  9991","line2":"2 48474  53.1607 197.3278 0001231  90.3960 269.7181 15.30190356278152","mean_motion":15.30190356,"eccentricity":0.0001231,"inclination_deg":53.1607,"raan_deg":197.3278,"arg_perigee_deg":90.396,"mean_anomaly_deg":269.7181,"bstar":2.9991e-5,"rev_number":27815,"period_min":94.105938803865,"perigee_km":474.40021363176,"apogee_km":476.08751600067,"semimajor_km":6853.3808648162,"source":"CELESTRAK","updated_at":"2026-05-25T13:38:16.722134Z"}}}